Location: Unspecified
(0.0000°N, 0.0000°E)
Time: 13:24:13
(UTC+00:00)

ISS - Pass Details

Date: 22 August 2019
Orbit: 410 x 420 km, 51.6° (Epoch: 21 August)

Event Time Altitude Azimuth Distance (km) Brightness Sun altitude
Exits shadow 05:07:33 14° 308° (NW) 1,270 -1.7 -13.6°
Drops below altitude 10° 05:09:11 10° 338° (NNW) 1,470 -1.1 -13.2°
Sets 05:12:04 0° 6° (N) 2,329 0.3 -12.5°
